| time (UTC) | temp C | wind direction | speed KPH | gust KPH | rain 1hr cm | rain 24hr cm | rain mn cm | humidity % | barometer mb |
| 20260906033020 | 17 | 83 | 6.4 | 12.9 | 0.00 | 0.00 | 0.00 | 55 | 1015.0 |
| 20260906031518 | 16 | 91 | 6.4 | 9.7 | 0.00 | 0.00 | 0.00 | 58 | 1015.0 |
| 20260906030019 | 16 | 60 | 4.8 | 12.9 | 0.00 | 0.00 | 0.00 | 61 | 1014.6 |
| 20260906024532 | 16 | 64 | 4.8 | 9.7 | 0.00 | 0.00 | 0.00 | 60 | 1014.4 |
| 20260906023019 | 17 | 35 | 4.8 | 9.7 | 0.00 | 0.00 | 0.00 | 58 | 1014.4 |
| 20260906021517 | 17 | 9 | 6.4 | 11.3 | 0.00 | 0.00 | 0.00 | 56 | 1014.4 |
| 20260906020015 | 18 | 26 | 4.8 | 9.7 | 0.00 | 0.00 | 0.00 | 53 | 1014.4 |
| 20260906014521 | 19 | 67 | 6.4 | 8.0 | 0.00 | 0.00 | 0.00 | 49 | 1014.5 |
| 20260906013034 | 20 | 37 | 4.8 | 9.7 | 0.00 | 0.00 | 0.00 | 47 | 1014.4 |
| 20260906011513 | 21 | 54 | 6.4 | 9.7 | 0.00 | 0.00 | 0.00 | 43 | 1014.4 |
| 20260906010012 | 21 | 352 | 4.8 | 9.7 | 0.00 | 0.00 | 0.00 | 42 | 1014.4 |
| 20260906004511 | 20 | 359 | 3.2 | 11.3 | 0.00 | 0.00 | 0.00 | 44 | 1014.3 |
| 20260906003009 | 20 | 296 | 6.4 | 11.3 | 0.00 | 0.00 | 0.00 | 44 | 1014.3 |
| 20260906001512 | 20 | 13 | 8.0 | 12.9 | 0.00 | 0.00 | 0.00 | 47 | 1014.3 |
| 20260906000009 | 20 | 352 | 6.4 | 14.5 | 0.00 | 0.00 | 0.00 | 46 | 1014.2 |
| 20260905234506 | 20 | 343 | 8.0 | 16.1 | 0.00 | 0.00 | 0.00 | 46 | 1014.3 |
| 20260905233006 | 20 | 330 | 4.8 | 11.3 | 0.00 | 0.00 | 0.00 | 46 | 1014.3 |
| 20260905231506 | 20 | 328 | 9.7 | 17.7 | 0.00 | 0.00 | 0.00 | 46 | 1014.2 |
| 20260905230004 | 20 | 39 | 6.4 | 17.7 | 0.00 | 0.00 | 0.00 | 48 | 1014.4 |
| 20260905224502 | 20 | 33 | 8.0 | 19.3 | 0.00 | 0.00 | 0.00 | 47 | 1014.6 |
| 20260905223100 | 19 | 345 | 11.3 | 19.3 | 0.00 | 0.00 | 0.00 | 48 | 1014.7 |
| 20260905221612 | 19 | 30 | 14.5 | 24.1 | 0.00 | 0.00 | 0.00 | 52 | 1015.0 |
| 20260905220056 | 18 | 32 | 14.5 | 24.1 | 0.00 | 0.00 | 0.00 | 56 | 1015.0 |
| 20260905214557 | 18 | 46 | 17.7 | 25.7 | 0.00 | 0.00 | 0.00 | 55 | 1015.1 |
| 20260905213103 | 17 | 68 | 6.4 | 19.3 | 0.00 | 0.00 | 0.00 | 57 | 1016.1 |
| 20260905211556 | 17 | 46 | 12.9 | 22.5 | 0.00 | 0.00 | 0.00 | 56 | 1015.5 |
| 20260905210057 | 18 | 24 | 6.4 | 19.3 | 0.00 | 0.00 | 0.00 | 52 | 1015.5 |
| 20260905204553 | 18 | 21 | 8.0 | 17.7 | 0.00 | 0.00 | 0.00 | 52 | 1015.7 |
| 20260905203054 | 18 | 55 | 12.9 | 19.3 | 0.00 | 0.00 | 0.00 | 50 | 1015.6 |
| 20260905201604 | 18 | 13 | 8.0 | 19.3 | 0.00 | 0.00 | 0.00 | 52 | 1015.7 |
| 20260905200048 | 17 | 79 | 9.7 | 12.9 | 0.00 | 0.00 | 0.00 | 53 | 1015.9 |
| 20260905194546 | 18 | 63 | 8.0 | 14.5 | 0.00 | 0.00 | 0.00 | 52 | 1015.8 |
| 20260905193056 | 18 | 357 | 3.2 | 8.0 | 0.00 | 0.00 | 0.00 | 52 | 1015.7 |
| 20260905191543 | 17 | 30 | 8.0 | 12.9 | 0.00 | 0.00 | 0.00 | 54 | 1015.8 |
| 20260905190043 | 17 | 356 | 1.6 | 9.7 | 0.00 | 0.00 | 0.00 | 54 | 1016.3 |
| 20260905184544 | 17 | 266 | 0.0 | 6.4 | 0.00 | 0.00 | 0.00 | 55 | 1016.4 |
| 20260905183039 | 16 | 326 | 3.2 | 9.7 | 0.00 | 0.00 | 0.00 | 58 | 1016.2 |
| 20260905181544 | 16 | 313 | 0.0 | 4.8 | 0.00 | 0.00 | 0.00 | 58 | 1016.6 |
| 20260905180040 | 16 | 109 | 1.6 | 6.4 | 0.00 | 0.00 | 0.00 | 59 | 1016.8 |
| 20260905174534 | 15 | 271 | 4.8 | 9.7 | 0.00 | 0.00 | 0.00 | 59 | 1016.9 |
| 20260905173032 | 16 | 243 | 4.8 | 9.7 | 0.00 | 0.00 | 0.00 | 62 | 1016.9 |
| 20260905171533 | 15 | 271 | 1.6 | 8.0 | 0.00 | 0.00 | 0.00 | 63 | 1016.9 |
| 20260905170028 | 15 | 262 | 4.8 | 8.0 | 0.00 | 0.00 | 0.00 | 64 | 1016.9 |
| 20260905164525 | 14 | 240 | 3.2 | 6.4 | 0.00 | 0.00 | 0.00 | 72 | 1016.7 |
| 20260905163021 | 13 | 203 | 3.2 | 8.0 | 0.00 | 0.00 | 0.00 | 76 | 1016.7 |
| 20260905161518 | 13 | 194 | 4.8 | 9.7 | 0.00 | 0.00 | 0.00 | 76 | 1016.7 |
| 20260905160016 | 12 | 237 | 1.6 | 6.4 | 0.00 | 0.00 | 0.00 | 79 | 1016.6 |
| 20260905154620 | 12 | 204 | 3.2 | 8.0 | 0.00 | 0.00 | 0.00 | 80 | 1016.5 |
| 20260905153014 | 12 | 240 | 0.0 | 3.2 | 0.00 | 0.00 | 0.00 | 80 | 1016.6 |
| 20260905151514 | 12 | 134 | 0.0 | 0.0 | 0.00 | 0.00 | 0.00 | 80 | 1016.7 |
| 20260905150013 | 12 | 134 | 0.0 | 1.6 | 0.00 | 0.00 | 0.00 | 79 | 1016.5 |
| 20260905144512 | 11 | 151 | 3.2 | 6.4 | 0.00 | 0.00 | 0.00 | 82 | 1016.7 |
| 20260905143017 | 10 | 113 | 0.0 | 3.2 | 0.00 | 0.00 | 0.00 | 82 | 1016.5 |
| 20260905141509 | 10 | 113 | 0.0 | 0.0 | 0.00 | 0.00 | 0.00 | 83 | 1016.3 |
| 20260905140009 | 10 | 113 | 0.0 | 3.2 | 0.00 | 0.00 | 0.00 | 83 | 1016.3 |
| 20260905134505 | 10 | 113 | 0.0 | 0.0 | 0.00 | 0.00 | 0.00 | 83 | 1016.3 |
| 20260905133004 | 10 | 113 | 1.6 | 3.2 | 0.00 | 0.00 | 0.00 | 84 | 1016.1 |
| 20260905131504 | 10 | 113 | 0.0 | 6.4 | 0.00 | 0.00 | 0.00 | 83 | 1015.9 |
| 20260905130001 | 10 | 310 | 0.0 | 3.2 | 0.00 | 0.00 | 0.00 | 82 | 1015.9 |
| 20260905124604 | 10 | 320 | 0.0 | 4.8 | 0.00 | 0.00 | 0.00 | 81 | 1015.8 |
| 20260905123100 | 11 | 193 | 6.4 | 9.7 | 0.00 | 0.00 | 0.00 | 78 | 1016.0 |
| 20260905121600 | 12 | 182 | 6.4 | 9.7 | 0.00 | 0.00 | 0.00 | 74 | 1016.0 |
| 20260905120057 | 11 | 156 | 4.8 | 12.9 | 0.00 | 0.00 | 0.00 | 78 | 1016.0 |
| 20260905114556 | 11 | 139 | 6.4 | 11.3 | 0.00 | 0.00 | 0.00 | 80 | 1016.0 |
| 20260905113055 | 12 | 137 | 4.8 | 11.3 | 0.00 | 0.00 | 0.00 | 76 | 1015.7 |
| 20260905111605 | 11 | 145 | 8.0 | 12.9 | 0.00 | 0.00 | 0.00 | 76 | 1015.8 |
| 20260905110058 | 11 | 172 | 4.8 | 6.4 | 0.00 | 0.00 | 0.00 | 80 | 1015.8 |
| 20260905104609 | 11 | 180 | 4.8 | 6.4 | 0.00 | 0.00 | 0.00 | 77 | 1015.4 |
| 20260905103049 | 11 | 141 | 0.0 | 1.6 | 0.00 | 0.00 | 0.00 | 75 | 1015.2 |
| 20260905101551 | 11 | 141 | 0.0 | 3.2 | 0.00 | 0.00 | 0.00 | 76 | 1015.2 |
| 20260905100047 | 11 | 139 | 3.2 | 4.8 | 0.00 | 0.00 | 0.00 | 77 | 1015.3 |
| 20260905094546 | 11 | 139 | 1.6 | 6.4 | 0.00 | 0.00 | 0.00 | 75 | 1015.0 |
| 20260905093045 | 11 | 129 | 1.6 | 8.0 | 0.00 | 0.00 | 0.00 | 75 | 1015.0 |
| 20260905091604 | 11 | 108 | 0.0 | 6.4 | 0.00 | 0.00 | 0.00 | 74 | 1015.1 |
| 20260905090044 | 12 | 108 | 4.8 | 6.4 | 0.00 | 0.00 | 0.00 | 71 | 1015.0 |
| 20260905084604 | 12 | 104 | 3.2 | 8.0 | 0.00 | 0.00 | 0.00 | 72 | 1015.1 |
| 20260905083141 | 12 | 248 | 0.0 | 6.4 | 0.00 | 0.00 | 0.00 | 70 | 1015.0 |
| 20260905081537 | 12 | 277 | 3.2 | 11.3 | 0.00 | 0.00 | 0.00 | 71 | 1015.1 |
| 20260905080040 | 10 | 205 | 0.0 | 3.2 | 0.00 | 0.00 | 0.00 | 78 | 1015.0 |
| 20260905074532 | 10 | 205 | 1.6 | 11.3 | 0.00 | 0.00 | 0.00 | 78 | 1014.9 |
| 20260905073033 | 10 | 18 | 6.4 | 9.7 | 0.00 | 0.00 | 0.00 | 76 | 1014.1 |
| 20260905071526 | 11 | 139 | 0.0 | 6.4 | 0.00 | 0.00 | 0.00 | 73 | 1014.0 |
| 20260905070042 | 10 | 139 | 1.6 | 6.4 | 0.00 | 0.00 | 0.00 | 76 | 1013.9 |
| 20260905064522 | 10 | 148 | 3.2 | 6.4 | 0.00 | 0.00 | 0.00 | 78 | 1013.9 |
| 20260905063020 | 9 | 162 | 3.2 | 6.4 | 0.00 | 0.00 | 0.00 | 77 | 1013.8 |
| 20260905061518 | 9 | 204 | 3.2 | 6.4 | 0.00 | 0.00 | 0.00 | 76 | 1013.6 |
| 20260905060018 | 10 | 204 | 1.6 | 4.8 | 0.00 | 0.00 | 0.00 | 75 | 1013.5 |
| 20260905054538 | 10 | 204 | 3.2 | 4.8 | 0.00 | 0.00 | 0.00 | 74 | 1013.3 |
| 20260905053016 | 10 | 204 | 1.6 | 6.4 | 0.00 | 0.00 | 0.00 | 73 | 1013.4 |
| 20260905051533 | 10 | 145 | 3.2 | 8.0 | 0.00 | 0.00 | 0.00 | 73 | 1013.3 |
| 20260905050014 | 10 | 152 | 0.0 | 3.2 | 0.00 | 0.00 | 0.00 | 70 | 1013.2 |
| 20260905044518 | 11 | 152 | 0.0 | 3.2 | 0.00 | 0.00 | 0.00 | 70 | 1013.2 |
| 20260905043012 | 12 | 155 | 0.0 | 9.7 | 0.00 | 0.00 | 0.00 | 66 | 1013.2 |
| 20260905041512 | 13 | 296 | 3.2 | 6.4 | 0.00 | 0.00 | 0.00 | 64 | 1013.2 |
| 20260905040011 | 13 | 250 | 0.0 | 3.2 | 0.00 | 0.00 | 0.00 | 60 | 1013.3 |
| 20260905034509 | 15 | 293 | 4.8 | 12.9 | 0.00 | 0.00 | 0.00 | 54 | 1013.1 |